Terminal Aerodrome Forecast
Issued by NWS La Crosse, WI

Home | Current Version | Previous Version | Text Only | Print | Product List | Glossary On
Versions: 1 2 3 4 5 6 7 8 9 10 11 12 13 14 15 16 17 18 19 20 21 22 23 24 25 26 27
000
FTUS43 KARX 041208 AAA
TAFLSE
TAF AMD
KLSE 041208Z 0412/0512 VRB03KT P6SM SKC
     FM041600 30008KT P6SM SCT250
     FM050100 VRB03KT P6SM SKC
     FM051000 16003KT P6SM BCFG SCT003=

USA.gov is the U.S. government's official web portal to all federal, state and local government web resources and services.